カタログに戻る

STARLINK-32410

運用中通信VLEO
NORAD 61887·PAYLOAD·🇺🇸 United States

打ち上げ Nov 9, 2024 から Vandenberg Space Force Base

Loading…

次のパス (今後24時間)

TLE

最新Source: CelesTrak SupGP

元期: Sep 14, 2026, 22:37 UTC

1 61887C 24204P   26257.94284722  .00014612  00000+0  43174-3 0  2574
2 61887  53.1581 323.7133 0001126  86.1672 279.7007 15.34380775    13

AllMySatでSTARLINK-32410をリアルタイム追跡

Download on the App Store